ANZ417 NZAA-NZWN

Flight info

Callsign ANZ417
Flight time 0h 47m
Altitude 36000
Route IGBAT Y506 TPAPA
Aircraft A320/M-SDE3FGHIRWY/LB1

Departure

Time 2026-05-07 23:03
Airport Auckland International Airport (NZAA)

Arrival

Time 2026-05-07 23:50
Airport Wellington International Airport (NZWN)
Time Latitude Longitude Altitude Speed Heading
2026-05-07 22:31 -37.00700 174.79145 26 ft 0 kts 342°
2026-05-07 22:55 -37.00705 174.79147 27 ft 3 kts 341°
2026-05-07 22:56 -37.00728 174.79157 28 ft 3 kts 340°
2026-05-07 22:56 -37.00747 174.79165 27 ft 3 kts 338°
2026-05-07 22:56 -37.00763 174.79181 31 ft 3 kts 281°
2026-05-07 22:56 -37.00762 174.79209 30 ft 3 kts 252°
2026-05-07 22:57 -37.00760 174.79217 28 ft 0 kts 251°
2026-05-07 22:59 -37.00762 174.79209 30 ft 3 kts 251°
2026-05-07 22:59 -37.00777 174.79154 25 ft 10 kts 252°
2026-05-07 23:00 -37.00806 174.79048 25 ft 16 kts 251°
2026-05-07 23:00 -37.00848 174.78893 25 ft 22 kts 250°
2026-05-07 23:00 -37.00905 174.78690 25 ft 27 kts 251°
2026-05-07 23:00 -37.00970 174.78453 27 ft 28 kts 250°
2026-05-07 23:01 -37.01017 174.78282 27 ft 14 kts 212°
2026-05-07 23:01 -37.01114 174.78234 30 ft 16 kts 232°
2026-05-07 23:01 -37.01162 174.78095 26 ft 16 kts 231°
2026-05-07 23:01 -37.01231 174.78161 27 ft 16 kts 102°
2026-05-07 23:02 -37.01254 174.78313 26 ft 19 kts 100°
2026-05-07 23:02 -37.01243 174.78483 26 ft 22 kts 72°
2026-05-07 23:02 -37.01129 174.78894 26 ft 85 kts 71°
2026-05-07 23:02 -37.00870 174.79828 26 ft 139 kts 70°
2026-05-07 23:03 -37.00540 174.81026 530 ft 147 kts 68°
2026-05-07 23:03 -37.00216 174.82280 1103 ft 156 kts 65°
2026-05-07 23:03 -36.99874 174.83637 1636 ft 171 kts 64°
2026-05-07 23:03 -36.99458 174.85114 2071 ft 191 kts 63°
2026-05-07 23:04 -36.98987 174.86737 2654 ft 204 kts 63°
2026-05-07 23:04 -36.98501 174.88432 3520 ft 208 kts 64°
2026-05-07 23:04 -36.98128 174.90207 4372 ft 221 kts 83°
2026-05-07 23:04 -36.98636 174.92088 5171 ft 244 kts 124°
2026-05-07 23:05 -37.00021 174.93384 5987 ft 256 kts 155°
2026-05-07 23:05 -37.01772 174.93702 6776 ft 258 kts 193°
2026-05-07 23:05 -37.03493 174.92993 7347 ft 271 kts 207°
2026-05-07 23:05 -37.05308 174.92024 7785 ft 295 kts 208°
2026-05-07 23:06 -37.07227 174.90977 8490 ft 305 kts 208°
2026-05-07 23:06 -37.09192 174.89907 9346 ft 311 kts 208°
2026-05-07 23:06 -37.11200 174.88821 10185 ft 317 kts 208°
2026-05-07 23:06 -37.13301 174.87682 10542 ft 341 kts 208°
2026-05-07 23:07 -37.15526 174.86473 11041 ft 354 kts 208°
2026-05-07 23:07 -37.17812 174.85241 11747 ft 360 kts 207°
2026-05-07 23:07 -37.20125 174.83998 12523 ft 364 kts 207°
2026-05-07 23:07 -37.22465 174.82739 13288 ft 368 kts 208°
2026-05-07 23:08 -37.24829 174.81461 14026 ft 371 kts 208°
2026-05-07 23:08 -37.27184 174.80188 14659 ft 375 kts 208°
2026-05-07 23:08 -37.29597 174.78883 15310 ft 379 kts 208°
2026-05-07 23:08 -37.32031 174.77565 15965 ft 383 kts 208°
2026-05-07 23:09 -37.34488 174.76232 16612 ft 387 kts 208°
2026-05-07 23:09 -37.36969 174.74885 17282 ft 391 kts 208°
2026-05-07 23:09 -37.39484 174.73517 17881 ft 396 kts 208°
2026-05-07 23:09 -37.42025 174.72135 18486 ft 400 kts 208°
2026-05-07 23:10 -37.44592 174.70738 19067 ft 403 kts 208°
2026-05-07 23:10 -37.47173 174.69332 19661 ft 406 kts 208°
2026-05-07 23:10 -37.49773 174.67910 20275 ft 408 kts 208°
2026-05-07 23:10 -37.52389 174.66479 20871 ft 411 kts 207°
2026-05-07 23:11 -37.55012 174.65047 21499 ft 411 kts 208°
2026-05-07 23:11 -37.57654 174.63742 22113 ft 415 kts 201°
2026-05-07 23:11 -37.60467 174.62832 22669 ft 419 kts 197°
2026-05-07 23:11 -37.63316 174.61948 23163 ft 423 kts 196°
2026-05-07 23:12 -37.66182 174.61059 23674 ft 426 kts 197°
2026-05-07 23:12 -37.69075 174.60161 24115 ft 429 kts 197°
2026-05-07 23:12 -37.71982 174.59257 24575 ft 431 kts 197°
2026-05-07 23:12 -37.74901 174.58348 25034 ft 433 kts 198°
2026-05-07 23:13 -37.77831 174.57434 25491 ft 435 kts 198°
2026-05-07 23:13 -37.80745 174.56524 25941 ft 436 kts 198°
2026-05-07 23:13 -37.83737 174.55590 26403 ft 439 kts 198°
2026-05-07 23:13 -37.86714 174.54659 26810 ft 442 kts 199°
2026-05-07 23:14 -37.89706 174.53720 27241 ft 444 kts 199°
2026-05-07 23:14 -37.92711 174.52777 27674 ft 446 kts 199°
2026-05-07 23:14 -37.95691 174.51838 28102 ft 448 kts 200°
2026-05-07 23:14 -37.98761 174.51054 28521 ft 455 kts 192°
2026-05-07 23:15 -38.01921 174.50606 28945 ft 458 kts 192°
2026-05-07 23:15 -38.05098 174.50163 29374 ft 460 kts 192°
2026-05-07 23:15 -38.08288 174.49723 29811 ft 463 kts 193°
2026-05-07 23:15 -38.11515 174.49282 30207 ft 466 kts 193°
2026-05-07 23:16 -38.14744 174.48841 30559 ft 468 kts 193°
2026-05-07 23:16 -38.17993 174.48397 30895 ft 471 kts 193°
2026-05-07 23:16 -38.21256 174.47948 31233 ft 473 kts 193°
2026-05-07 23:16 -38.24537 174.47489 31569 ft 475 kts 193°
2026-05-07 23:17 -38.27833 174.47027 31963 ft 476 kts 194°
2026-05-07 23:17 -38.31123 174.46571 32452 ft 475 kts 194°
2026-05-07 23:17 -38.34407 174.46118 32937 ft 474 kts 194°
2026-05-07 23:17 -38.37684 174.45664 33419 ft 473 kts 194°
2026-05-07 23:18 -38.40914 174.45215 33899 ft 473 kts 194°
2026-05-07 23:18 -38.44184 174.44757 34332 ft 472 kts 194°
2026-05-07 23:18 -38.47442 174.44302 34748 ft 471 kts 194°
2026-05-07 23:18 -38.50698 174.43847 35164 ft 469 kts 194°
2026-05-07 23:19 -38.53940 174.43390 35580 ft 468 kts 194°
2026-05-07 23:19 -38.57171 174.42934 35916 ft 468 kts 194°
2026-05-07 23:19 -38.60405 174.42478 36009 ft 466 kts 194°
2026-05-07 23:20 -38.66806 174.41579 36019 ft 461 kts 194°
2026-05-07 23:20 -38.73196 174.40669 36019 ft 461 kts 194°
2026-05-07 23:21 -38.79569 174.39767 36013 ft 460 kts 193°
2026-05-07 23:21 -38.85885 174.38869 36017 ft 460 kts 193°
2026-05-07 23:22 -38.92250 174.37972 36019 ft 460 kts 193°
2026-05-07 23:22 -38.98618 174.37063 36022 ft 460 kts 193°
2026-05-07 23:23 -39.04993 174.36162 36022 ft 461 kts 192°
2026-05-07 23:23 -39.11478 174.36304 36014 ft 468 kts 184°
2026-05-07 23:24 -39.17996 174.36685 36014 ft 469 kts 184°
2026-05-07 23:24 -39.24521 174.37057 36034 ft 470 kts 184°
2026-05-07 23:25 -39.31055 174.37426 36003 ft 471 kts 184°
2026-05-07 23:25 -39.37602 174.37799 35990 ft 471 kts 184°
2026-05-07 23:26 -39.44166 174.38184 35986 ft 472 kts 184°
2026-05-07 23:26 -39.50701 174.38562 35988 ft 473 kts 184°
2026-05-07 23:26 -39.53998 174.38755 35788 ft 474 kts 184°
2026-05-07 23:27 -39.60559 174.39147 35260 ft 468 kts 184°
2026-05-07 23:27 -39.63807 174.39337 34747 ft 467 kts 185°
2026-05-07 23:27 -39.67057 174.39521 34245 ft 467 kts 185°
2026-05-07 23:28 -39.70306 174.39704 33683 ft 467 kts 185°
2026-05-07 23:28 -39.73548 174.39890 33154 ft 464 kts 184°
2026-05-07 23:28 -39.76765 174.40079 32645 ft 462 kts 184°
2026-05-07 23:28 -39.79972 174.40269 32128 ft 459 kts 184°
2026-05-07 23:29 -39.83157 174.40457 31627 ft 457 kts 184°
2026-05-07 23:29 -39.86327 174.40645 31120 ft 455 kts 184°
2026-05-07 23:29 -39.89478 174.40832 30646 ft 452 kts 184°
2026-05-07 23:29 -39.92584 174.41019 30172 ft 451 kts 184°
2026-05-07 23:30 -39.95707 174.41207 29654 ft 448 kts 184°
2026-05-07 23:30 -39.98804 174.41392 29210 ft 443 kts 184°
2026-05-07 23:30 -40.01875 174.41571 28762 ft 439 kts 184°
2026-05-07 23:30 -40.04921 174.41749 28328 ft 436 kts 184°
2026-05-07 23:31 -40.07937 174.41923 27887 ft 432 kts 184°
2026-05-07 23:31 -40.10932 174.42097 27444 ft 430 kts 183°
2026-05-07 23:31 -40.13913 174.42275 27012 ft 428 kts 183°
2026-05-07 23:31 -40.16885 174.42452 26547 ft 427 kts 183°
2026-05-07 23:32 -40.19847 174.42626 26094 ft 425 kts 182°
2026-05-07 23:32 -40.22805 174.42800 25625 ft 424 kts 182°
2026-05-07 23:32 -40.25748 174.42972 25153 ft 423 kts 182°
2026-05-07 23:32 -40.28683 174.43144 24668 ft 422 kts 182°
2026-05-07 23:33 -40.30625 174.43259 24343 ft 422 kts 182°
2026-05-07 23:33 -40.33558 174.43432 23853 ft 421 kts 182°
2026-05-07 23:33 -40.36488 174.43605 23338 ft 422 kts 181°
2026-05-07 23:33 -40.39396 174.43780 22861 ft 418 kts 181°
2026-05-07 23:34 -40.43232 174.44011 22212 ft 414 kts 181°
2026-05-07 23:34 -40.45177 174.44126 21912 ft 411 kts 181°
2026-05-07 23:34 -40.48033 174.44296 21373 ft 410 kts 181°
2026-05-07 23:34 -40.50862 174.44466 20911 ft 406 kts 181°
2026-05-07 23:35 -40.53673 174.44634 20489 ft 402 kts 181°
2026-05-07 23:35 -40.56473 174.44798 19992 ft 400 kts 181°
2026-05-07 23:35 -40.59252 174.44965 19462 ft 400 kts 181°
2026-05-07 23:35 -40.62009 174.45130 19133 ft 394 kts 181°
2026-05-07 23:36 -40.64740 174.45293 18667 ft 392 kts 181°
2026-05-07 23:36 -40.67427 174.45453 18225 ft 390 kts 181°
2026-05-07 23:36 -40.70130 174.45616 17735 ft 388 kts 180°
2026-05-07 23:36 -40.72817 174.45894 17257 ft 386 kts 177°
2026-05-07 23:37 -40.75512 174.46324 16726 ft 386 kts 175°
2026-05-07 23:37 -40.78116 174.46823 16358 ft 381 kts 174°
2026-05-07 23:37 -40.80741 174.47350 15864 ft 381 kts 174°
2026-05-07 23:37 -40.83348 174.47866 15464 ft 377 kts 174°
2026-05-07 23:38 -40.85942 174.48361 15059 ft 374 kts 174°
2026-05-07 23:38 -40.88511 174.48832 14662 ft 372 kts 175°
2026-05-07 23:38 -40.91064 174.49287 14267 ft 370 kts 175°
2026-05-07 23:38 -40.93605 174.49733 13927 ft 366 kts 175°
2026-05-07 23:39 -40.96118 174.50176 13545 ft 363 kts 174°
2026-05-07 23:39 -40.98617 174.50616 13133 ft 361 kts 174°
2026-05-07 23:39 -41.01099 174.51053 12748 ft 359 kts 175°
2026-05-07 23:39 -41.03569 174.51490 12345 ft 358 kts 175°
2026-05-07 23:40 -41.06030 174.51927 11957 ft 356 kts 175°
2026-05-07 23:40 -41.08481 174.52365 11560 ft 355 kts 174°
2026-05-07 23:40 -41.10925 174.52849 11175 ft 354 kts 173°
2026-05-07 23:40 -41.13353 174.53370 10771 ft 353 kts 173°
2026-05-07 23:41 -41.15772 174.53907 10375 ft 352 kts 172°
2026-05-07 23:41 -41.18180 174.54445 9985 ft 351 kts 172°
2026-05-07 23:41 -41.20569 174.54973 9790 ft 343 kts 172°
2026-05-07 23:41 -41.22895 174.55481 9554 ft 337 kts 173°
2026-05-07 23:42 -41.25210 174.55979 9164 ft 337 kts 173°
2026-05-07 23:42 -41.27496 174.56470 8793 ft 335 kts 173°
2026-05-07 23:42 -41.29775 174.57114 8433 ft 336 kts 163°
2026-05-07 23:42 -41.31933 174.58286 8096 ft 334 kts 157°
2026-05-07 23:43 -41.34063 174.59528 7773 ft 333 kts 157°
2026-05-07 23:43 -41.36180 174.60763 7528 ft 329 kts 157°
2026-05-07 23:43 -41.38249 174.61968 7406 ft 321 kts 158°
2026-05-07 23:43 -41.40272 174.63142 7276 ft 314 kts 157°
2026-05-07 23:44 -41.42249 174.64290 7152 ft 306 kts 158°
2026-05-07 23:44 -41.44173 174.65409 7046 ft 299 kts 158°
2026-05-07 23:44 -41.46072 174.66511 6786 ft 297 kts 158°
2026-05-07 23:44 -41.47816 174.67928 6491 ft 291 kts 136°
2026-05-07 23:45 -41.49041 174.70036 5902 ft 286 kts 110°
2026-05-07 23:45 -41.49573 174.72521 5427 ft 273 kts 87°
2026-05-07 23:45 -41.49670 174.75024 4984 ft 269 kts 84°
2026-05-07 23:45 -41.49663 174.77486 4501 ft 257 kts 67°
2026-05-07 23:46 -41.48870 174.79379 4087 ft 220 kts 28°
2026-05-07 23:46 -41.47561 174.79991 3618 ft 193 kts 352°
2026-05-07 23:46 -41.46234 174.79790 3075 ft 191 kts 354°
2026-05-07 23:46 -41.44930 174.79851 2469 ft 183 kts 358°
2026-05-07 23:47 -41.43718 174.79942 2078 ft 166 kts 358°
2026-05-07 23:47 -41.42598 174.80020 1825 ft 155 kts
2026-05-07 23:47 -41.41580 174.80090 1623 ft 138 kts
2026-05-07 23:47 -41.40660 174.80153 1431 ft 128 kts 359°
2026-05-07 23:48 -41.39713 174.80216 1257 ft 139 kts
2026-05-07 23:48 -41.38733 174.80281 1065 ft 143 kts
2026-05-07 23:48 -41.37734 174.80348 897 ft 141 kts
2026-05-07 23:48 -41.36802 174.80407 730 ft 132 kts
2026-05-07 23:49 -41.35886 174.80450 552 ft 132 kts
2026-05-07 23:49 -41.35001 174.80504 399 ft 125 kts
2026-05-07 23:49 -41.34135 174.80585 221 ft 124 kts
2026-05-07 23:49 -41.33270 174.80649 49 ft 121 kts
2026-05-07 23:50 -41.32604 174.80696 28 ft 59 kts
2026-05-07 23:50 -41.32337 174.80715 38 ft 31 kts
2026-05-07 23:50 -41.32147 174.80730 44 ft 24 kts
2026-05-07 23:50 -41.32004 174.80741 49 ft 18 kts
2026-05-07 23:51 -41.31899 174.80777 53 ft 14 kts 58°
2026-05-07 23:51 -41.31941 174.80872 53 ft 15 kts 167°
2026-05-07 23:51 -41.32065 174.80857 47 ft 21 kts 184°
2026-05-07 23:51 -41.32231 174.80847 42 ft 27 kts 182°
2026-05-07 23:52 -41.32436 174.80834 33 ft 32 kts 183°
2026-05-07 23:52 -41.32663 174.80819 26 ft 27 kts 182°
2026-05-07 23:52 -41.32811 174.80828 26 ft 18 kts 146°
2026-05-07 23:52 -41.32893 174.80900 26 ft 12 kts 146°
2026-05-07 23:53 -41.32942 174.80952 26 ft 8 kts 157°
2026-05-07 23:53 -41.32970 174.80967 26 ft 3 kts 158°
2026-05-07 23:53 -41.32982 174.80974 26 ft 1 kts 158°
2026-05-07 23:53 -41.32983 174.80974 26 ft 0 kts 158°